timestamp,surface_pressure_avg,surface_temp_avg,battery_voltage,lat,long
2023-08-20 00:09:00+00:00,300.2397,18.2,12.25,47.84626,-54.09684
2023-08-20 00:19:00+00:00,306.2747,18.2,12.25,47.84626,-54.09684
2023-08-20 00:29:00+00:00,313.8697,18.2,12.25,47.84626,-54.09684
2023-08-20 00:39:00+00:00,320.6779,18.2,12.25,47.84626,-54.09684
2023-08-20 00:49:00+00:00,320.1214,18.2,12.25,47.84626,-54.09684
2023-08-20 00:59:00+00:00,323.623,18.2,12.25,47.84626,-54.09684
2023-08-20 01:09:00+00:00,327.8563,18.2,12.25,47.84626,-54.09684
2023-08-20 01:19:00+00:00,329.588,18.2,12.25,47.84626,-54.09684
2023-08-20 01:29:00+00:00,330.4947,18.2,12.25,47.84626,-54.09684
2023-08-20 01:39:00+00:00,335.2214,18.2,12.25,47.84626,-54.09684
2023-08-20 01:49:00+00:00,332.848,18.2,12.25,47.84626,-54.09684
2023-08-20 01:59:00+00:00,330.6312,18.2,12.25,47.84626,-54.09684
2023-08-20 02:09:00+00:00,332.0213,18.2,12.25,47.84626,-54.09684
2023-08-20 02:19:00+00:00,331.5646,18.2,12.25,47.84626,-54.09684
2023-08-20 02:29:00+00:00,327.553,18.2,12.25,47.84626,-54.09684
2023-08-20 02:39:00+00:00,328.1979,18.2,12.25,47.84626,-54.09684
2023-08-20 02:49:00+00:00,328.9329,18.2,12.25,47.84626,-54.09684
2023-08-20 02:59:00+00:00,320.5313,18.2,12.25,47.84626,-54.09684
2023-08-20 03:09:00+00:00,316.0664,18.2,12.25,47.84626,-54.09684
2023-08-20 03:19:00+00:00,318.7147,18.2,12.25,47.84626,-54.09684
2023-08-20 03:29:00+00:00,316.153,18.2,12.25,47.84626,-54.09684
2023-08-20 03:39:00+00:00,306.9864,18.2,12.25,47.84626,-54.09684
2023-08-20 03:49:00+00:00,306.3214,18.2,12.25,47.84626,-54.09684
2023-08-20 03:59:00+00:00,306.178,18.2,12.25,47.84626,-54.09684
2023-08-20 04:09:00+00:00,296.4948,18.2,12.25,47.84626,-54.09684
2023-08-20 04:19:00+00:00,288.8381,18.2,12.25,47.84626,-54.09684
2023-08-20 04:29:00+00:00,289.0997,18.19,12.25,47.84626,-54.09684
2023-08-20 04:39:00+00:00,283.0947,18.2,12.25,47.84626,-54.09684
2023-08-20 04:49:00+00:00,271.5097,18.19,12.25,47.84626,-54.09684
2023-08-20 04:59:00+00:00,264.0364,18.19,12.25,47.84626,-54.09684
2023-08-20 05:09:00+00:00,257.9314,18.19,12.25,47.84626,-54.09684
2023-08-20 05:19:00+00:00,248.3364,18.19,12.25,47.84626,-54.09684
2023-08-20 05:29:00+00:00,239.8947,18.19,12.25,47.84626,-54.09684
2023-08-20 05:39:00+00:00,235.3231,18.19,12.25,47.84626,-54.09684
2023-08-20 05:49:00+00:00,228.5965,18.19,12.25,47.84626,-54.09684
2023-08-20 05:59:00+00:00,218.5014,18.19,12.25,47.84626,-54.09684
2023-08-20 06:09:00+00:00,208.7065,18.19,12.25,47.84626,-54.09684
2023-08-20 06:19:00+00:00,200.8198,18.19,12.25,47.84626,-54.09684
2023-08-20 06:29:00+00:00,193.7398,18.19,12.25,47.84626,-54.09684
2023-08-20 06:39:00+00:00,187.8214,18.2,12.25,47.84626,-54.09684
2023-08-20 06:49:00+00:00,184.1914,18.2,12.25,47.84626,-54.09684
2023-08-20 06:59:00+00:00,179.3648,18.2,12.25,47.84626,-54.09684
2023-08-20 07:09:00+00:00,171.6215,18.19,12.25,47.84626,-54.09684
2023-08-20 07:19:00+00:00,167.8181,18.19,12.25,47.84626,-54.09684
2023-08-20 07:29:00+00:00,171.0531,18.19,12.25,47.84626,-54.09684
2023-08-20 07:39:00+00:00,170.8748,18.19,12.25,47.84626,-54.09684
2023-08-20 07:49:00+00:00,167.6498,18.19,12.25,47.84626,-54.09684
2023-08-20 07:59:00+00:00,171.5748,18.19,12.25,47.84626,-54.09684
2023-08-20 08:09:00+00:00,176.9632,18.18,12.25,47.84626,-54.09684
2023-08-20 08:19:00+00:00,176.5582,18.18,12.25,47.84626,-54.09684
2023-08-20 08:29:00+00:00,178.9814,18.17,12.25,47.84626,-54.09684
2023-08-20 08:39:00+00:00,185.6948,18.17,12.25,47.84626,-54.09684
2023-08-20 08:49:00+00:00,190.2814,18.17,12.25,47.84626,-54.09684
2023-08-20 08:59:00+00:00,192.6181,18.18,12.25,47.84626,-54.09684
2023-08-20 09:09:00+00:00,196.9398,18.18,12.25,47.84626,-54.09684
2023-08-20 09:19:00+00:00,204.4532,18.18,12.25,47.84626,-54.09684
2023-08-20 09:29:00+00:00,210.9015,18.17,12.25,47.84626,-54.09684
2023-08-20 09:39:00+00:00,214.0331,18.17,12.25,47.84626,-54.09684
2023-08-20 09:49:00+00:00,219.5381,18.18,12.25,47.84626,-54.09684
2023-08-20 09:59:00+00:00,225.4781,18.16,12.25,47.84626,-54.09684
2023-08-20 10:09:00+00:00,228.3347,18.16,12.25,47.84626,-54.09684
2023-08-20 10:19:00+00:00,232.2597,18.18,12.25,47.84626,-54.09684
2023-08-20 10:29:00+00:00,238.043,18.19,12.25,47.84626,-54.09684
2023-08-20 10:39:00+00:00,240.0614,18.19,12.25,47.84626,-54.09684
2023-08-20 10:49:00+00:00,242.1164,18.19,12.25,47.84626,-54.09684
2023-08-20 10:59:00+00:00,247.5297,18.19,12.25,47.84626,-54.09684
2023-08-20 11:09:00+00:00,251.0931,18.19,12.25,47.84626,-54.09684
2023-08-20 11:19:00+00:00,253.8148,18.19,12.25,47.84626,-54.09684
2023-08-20 11:29:00+00:00,262.0797,18.19,12.25,47.84626,-54.09684
2023-08-20 11:39:00+00:00,271.3748,18.19,12.25,47.84626,-54.09684
2023-08-20 11:49:00+00:00,273.8264,18.19,12.25,47.84626,-54.09684
2023-08-20 11:59:00+00:00,274.4097,18.19,12.25,47.84626,-54.09684
2023-08-20 12:09:00+00:00,284.4598,18.18,12.25,47.84626,-54.09684
2023-08-20 12:19:00+00:00,293.4514,18.19,12.25,47.84626,-54.09684
2023-08-20 12:29:00+00:00,299.4115,18.18,12.25,47.84626,-54.09684
2023-08-20 12:39:00+00:00,302.4214,18.18,12.25,47.84626,-54.09684
2023-08-20 12:49:00+00:00,313.628,18.18,12.25,47.84626,-54.09684
2023-08-20 12:59:00+00:00,318.0496,18.18,12.25,47.84626,-54.09684
2023-08-20 13:09:00+00:00,317.6779,18.19,12.25,47.84626,-54.09684
2023-08-20 13:19:00+00:00,323.5147,18.19,12.25,47.84626,-54.09684
2023-08-20 13:29:00+00:00,332.7847,18.19,12.25,47.84626,-54.09684
2023-08-20 13:39:00+00:00,334.5163,18.19,12.25,47.84626,-54.09684
2023-08-20 13:49:00+00:00,332.918,18.19,12.25,47.84626,-54.09684
2023-08-20 13:59:00+00:00,333.8763,18.19,12.25,47.84626,-54.09684
2023-08-20 14:09:00+00:00,333.9329,18.19,12.25,47.84626,-54.09684
2023-08-20 14:19:00+00:00,329.4913,18.19,12.25,47.84626,-54.09684
2023-08-20 14:29:00+00:00,328.2946,18.19,12.25,47.84626,-54.09684
2023-08-20 14:39:00+00:00,325.1396,18.2,12.25,47.84626,-54.09684
2023-08-20 14:49:00+00:00,324.6413,18.19,12.25,47.84626,-54.09684
2023-08-20 14:59:00+00:00,320.868,18.2,12.25,47.84626,-54.09684
2023-08-20 15:09:00+00:00,315.813,18.2,12.25,47.84626,-54.09684
2023-08-20 15:19:01+00:00,309.8397,18.2,12.33,47.84626,-54.09684
2023-08-20 15:29:01+00:00,307.0347,18.2,12.33,47.84626,-54.09684
2023-08-20 15:39:01+00:00,307.033,18.2,12.33,47.84626,-54.09684
2023-08-20 15:49:01+00:00,304.2096,18.2,12.33,47.84626,-54.09684
2023-08-20 15:59:01+00:00,303.2346,18.2,12.33,47.84626,-54.09684
2023-08-20 16:09:01+00:00,298.568,18.22,12.33,47.84626,-54.09684
2023-08-20 16:19:00+00:00,291.5914,18.24,12.33,47.84626,-54.09684
2023-08-20 16:29:00+00:00,286.3763,18.26,12.33,47.84626,-54.09684
2023-08-20 16:39:00+00:00,281.033,18.29,12.33,47.84626,-54.09684
2023-08-20 16:49:00+00:00,272.2647,18.3,12.33,47.84626,-54.09684
2023-08-20 16:59:00+00:00,266.2647,18.3,12.33,47.84626,-54.09684
2023-08-20 17:09:00+00:00,260.8698,18.3,12.33,47.84626,-54.09684
2023-08-20 17:19:00+00:00,254.0364,18.3,12.33,47.84626,-54.09684
2023-08-20 17:29:00+00:00,243.6497,18.29,12.33,47.84626,-54.09684
2023-08-20 17:39:00+00:00,241.283,18.29,12.33,47.84626,-54.09684
2023-08-20 17:49:00+00:00,236.7631,18.29,12.33,47.84626,-54.09684
2023-08-20 17:59:00+00:00,226.7397,18.29,12.33,47.84626,-54.09684
2023-08-20 18:09:00+00:00,215.9281,18.29,12.33,47.84626,-54.09684
2023-08-20 18:19:00+00:00,212.3348,18.3,12.25,47.84626,-54.09684
2023-08-20 18:29:00+00:00,209.4431,18.3,12.25,47.84626,-54.09684
2023-08-20 18:39:00+00:00,201.0048,18.36,12.25,47.84626,-54.09684
2023-08-20 18:49:00+00:00,192.2248,18.4,12.25,47.84626,-54.09684
2023-08-20 18:59:00+00:00,188.0414,18.42,12.25,47.84626,-54.09684
2023-08-20 19:09:00+00:00,182.1364,18.4,12.25,47.84626,-54.09684
2023-08-20 19:19:00+00:00,175.5332,18.4,12.25,47.84626,-54.09684
2023-08-20 19:29:00+00:00,175.6182,18.4,12.25,47.84626,-54.09684
2023-08-20 19:39:00+00:00,178.9481,18.44,12.25,47.84626,-54.09684
2023-08-20 19:49:00+00:00,178.0731,18.49,12.25,47.84626,-54.09684
2023-08-20 19:59:00+00:00,180.4882,18.5,12.25,47.84626,-54.09684
2023-08-20 20:09:00+00:00,182.5698,18.5,12.25,47.84626,-54.09684
2023-08-20 20:19:01+00:00,183.1782,18.5,12.25,47.84626,-54.09684
2023-08-20 20:29:01+00:00,187.7565,18.5,12.25,47.84626,-54.09684
2023-08-20 20:39:01+00:00,192.7148,18.5,12.25,47.84626,-54.09684
2023-08-20 20:49:01+00:00,193.0814,18.48,12.25,47.84626,-54.09684
2023-08-20 20:59:01+00:00,193.5081,18.43,12.25,47.84626,-54.09684
2023-08-20 21:09:01+00:00,198.7432,18.4,12.25,47.84626,-54.09684
2023-08-20 21:19:00+00:00,204.6848,18.4,12.17,47.84626,-54.09684
2023-08-20 21:29:00+00:00,210.2114,18.39,12.17,47.84626,-54.09684
2023-08-20 21:39:00+00:00,213.7881,18.38,12.17,47.84626,-54.09684
2023-08-20 21:49:00+00:00,218.6714,18.4,12.17,47.84626,-54.09684
2023-08-20 21:59:00+00:00,225.9331,18.38,12.17,47.84626,-54.09684
2023-08-20 22:09:00+00:00,229.3814,18.36,12.17,47.84626,-54.09684
2023-08-20 22:19:00+00:00,230.3881,18.35,12.25,47.84626,-54.09684
2023-08-20 22:29:00+00:00,235.1298,18.32,12.25,47.84626,-54.09684
2023-08-20 22:39:00+00:00,238.8031,18.3,12.25,47.84626,-54.09684
2023-08-20 22:49:00+00:00,241.1981,18.3,12.25,47.84626,-54.09684
2023-08-20 22:59:00+00:00,245.1463,18.3,12.25,47.84626,-54.09684
2023-08-20 23:09:00+00:00,248.9481,18.29,12.25,47.84626,-54.09684
2023-08-20 23:19:01+00:00,253.2097,18.29,12.25,47.84626,-54.09684
2023-08-20 23:29:01+00:00,258.4381,18.28,12.25,47.84626,-54.09684
2023-08-20 23:39:01+00:00,265.5264,18.26,12.25,47.84626,-54.09684
2023-08-20 23:49:01+00:00,270.7297,18.25,12.25,47.84626,-54.09684
2023-08-20 23:59:01+00:00,276.3314,18.2,12.25,47.84626,-54.09684
